Location: Namasale
(1.5000°N, 32.6167°E)
Time: 16:41:40
(UTC+00:00)

Vanguard 1 Rocket - Pass Details

Date: 25 April 2021
Orbit: 651 x 4225 km, 34.3° (Epoch: 17 May)

Event Time Altitude Azimuth Distance (km) Brightness Sun altitude
Rises 18:55:14 0° 285° (WNW) 3,888 11.4 -44.8°
Reaches altitude 10° 18:57:34 10° 277° (W) 3,214 10.7 -45.3°
Enters shadow 19:02:46 37° 240° (WSW) 2,348 9.5 -46.5°
Maximum altitude 19:05:20 43° 207° (SSW) 2,433 - -47.1°
Drops below altitude 10° 19:20:01 10° 141° (SE) 5,899 - -50.5°
Sets 19:26:15 0° 135° (SE) 7,479 - -51.9°
